Starlink 32921

operational
NORAD ID: 62920 Int'l Des: 2025-027 Owner: SPXS Country: US Constellation: starlink
LEOCIRCULAR

Über Starlink 32921

Beschreibung wird geladen...

Live-Position

3D-Globus wird geladen...

Nächste Überflüge

Höhenverlauf

Altitude vs Time

uPlot chart will show altitude changes over time

Zweizeiliger Elementsatz

1 62920U 25027P 25257.40652445 .00026077 00000-0 95366-3 0 9990
2 62920 43.0052 44.2916 0001144 269.0958 90.9763 15.27585378 34585
Epoch: 14. Sept. 2025 • Age: 21 hours

Aktueller Status

Höhe 490.2 km
Geschwindigkeit 7.62 km/s
Subsatellitenpunkt -29.46°S, 154.68°E
Startdatum 8. Feb. 2025
Alter 0.5 years
Typ internet

Technische Details

Klassifizierung Payload
Masse 730.00 kg
Trockenmasse 700.00 kg
Gesamtmasse 730.00 kg
Länge 0.30 m
Durchmesser 4.10 m
Spannweite 29.00 m
Form Box + pan
Hersteller SPXS
Bus-Typ Starlink V2M
Phasenstatus In Orbit
Besitzer/Staat SPXS/US

Große Konstellationen

Loading constellations...